Harlingen, TX

1:49 AM CDT on May 29, 2017 (GMT -0500)
Valley International

Weather History for KHRL - October, 2012

Change the Weather History Date:

Wednesday, October 3, 2012

  Actual Average Record
Temperature  
Mean Temperature 80 °F 78 °F  
Max Temperature 95 °F 88 °F 97 °F (1938)
Min Temperature 65 °F 69 °F 57 °F (1965)
Degree Days  
Heating Degree Days 0 0  
Month to date heating degree days 0 0  
Since 1 July heating degree days 0 0  
Cooling Degree Days 15 14  
Month to date cooling degree days 43 42  
Year to date cooling degree days 4157 3471  
Growing Degree Days 28 (Base 50)    
Moisture  
Dew Point 65 °F    
Average Humidity 62    
Maximum Humidity 87    
Minimum Humidity 36    
Precipitation  
Precipitation 0.00 in 0.11 in 2.50 in (1933)
Month to date precipitation 0.00 0.34  
Year to date precipitation 12.72 19.77  
Sea Level Pressure  
Sea Level Pressure 29.95 in    
Wind  
Wind Speed 12 mph (SSE)    
Max Wind Speed 23 mph    
Max Gust Speed 32 mph    
Visibility 10 miles    
Events      
T = Trace of Precipitation, MM = Missing Value Source: NWS Daily Summary

Daily Weather History Graph

Daily Weather History Graph

Search for Another Location

Airport or City:

Trip Planner

Search our weather history database for the weather conditions in past years. The results will help you decide how hot, cold, wet, or windy it might be!

Date:

Astronomy

Oct. 03, 2012 Rise Set
Actual Time 7:24 AM CDT 7:14 PM CDT
Civil Twilight 7:01 AM CDT 7:37 PM CDT
Nautical Twilight 6:34 AM CDT 8:04 PM CDT
Astronomical Twilight 6:07 AM CDT 8:30 PM CDT
Moon 9:31 PM CDT (10/3) 10:25 AM CDT (10/3)
Length of Visible Light 12h 36m
Length of Day
11h 50m
Waning Gibbous, 88% of the Moon is Illuminated
Oct 3
Waning Gibbous
Oct 8
Last Quarter
Oct 15
New
Oct 21
First Quarter
Oct 29
Full

Hourly Weather History & Observations

Time (CDT) Temp. Heat Index Dew Point Humidity Pressure Visibility Wind Dir Wind Speed Gust Speed Precip Events Conditions
12:52 AM 66.9 °F - 62.1 °F 84% 29.97 in 10.0 mi SSE 5.8 mph - N/A   Clear
1:52 AM 66.0 °F - 61.0 °F 84% 29.97 in 10.0 mi South 4.6 mph - N/A   Clear
2:52 AM 66.9 °F - 63.0 °F 87% 29.96 in 10.0 mi South 6.9 mph - N/A   Clear
3:52 AM 64.9 °F - 61.0 °F 87% 29.96 in 10.0 mi South 5.8 mph - N/A   Clear
4:52 AM 66.0 °F - 62.1 °F 87% 29.95 in 10.0 mi SSE 5.8 mph - N/A   Clear
5:52 AM 66.0 °F - 61.0 °F 84% 29.96 in 10.0 mi SSE 6.9 mph - N/A   Clear
6:52 AM 66.9 °F - 62.1 °F 84% 29.96 in 10.0 mi SE 8.1 mph - N/A   Clear
7:52 AM 66.9 °F - 63.0 °F 87% 29.96 in 10.0 mi SE 5.8 mph - N/A   Clear
8:52 AM 75.0 °F - 64.9 °F 71% 29.97 in 10.0 mi SE 6.9 mph - N/A   Clear
9:52 AM 82.9 °F 85.0 °F 66.0 °F 56% 29.99 in 10.0 mi SSE 12.7 mph - N/A   Clear
10:52 AM 86.0 °F 88.8 °F 66.9 °F 53% 29.99 in 10.0 mi South 16.1 mph 23.0 mph N/A   Clear
11:52 AM 89.1 °F 91.3 °F 66.0 °F 46% 29.98 in 10.0 mi South 13.8 mph 24.2 mph N/A   Clear
12:52 PM 91.9 °F 94.1 °F 64.9 °F 41% 29.96 in 10.0 mi South 16.1 mph 24.2 mph N/A   Clear
1:52 PM 93.0 °F 94.2 °F 63.0 °F 37% 29.93 in 10.0 mi South 15.0 mph 23.0 mph N/A   Scattered Clouds
2:52 PM 93.0 °F 94.6 °F 64.0 °F 38% 29.91 in 10.0 mi South 18.4 mph 26.5 mph N/A   Clear
3:52 PM 93.0 °F 94.6 °F 64.0 °F 38% 29.89 in 10.0 mi South 18.4 mph 26.5 mph N/A   Scattered Clouds
4:52 PM 91.9 °F 94.1 °F 64.9 °F 41% 29.90 in 10.0 mi SSE 18.4 mph 27.6 mph N/A   Clear
5:52 PM 89.1 °F 91.0 °F 64.9 °F 45% 29.90 in 10.0 mi SSE 19.6 mph - N/A   Clear
6:52 PM 84.9 °F 88.2 °F 68.0 °F 57% 29.91 in 10.0 mi SE 19.6 mph - N/A   Clear
7:52 PM 82.0 °F 85.5 °F 69.1 °F 65% 29.93 in 10.0 mi SSE 15.0 mph - N/A   Clear
8:52 PM 80.1 °F 83.2 °F 70.0 °F 71% 29.95 in 10.0 mi SSE 11.5 mph - N/A   Clear
9:52 PM 78.1 °F - 71.1 °F 79% 29.97 in 10.0 mi SE 10.4 mph - N/A   Clear
10:52 PM 77.0 °F - 71.1 °F 82% 29.99 in 10.0 mi SSE 9.2 mph - N/A   Clear
11:52 PM 77.0 °F - 71.1 °F 82% 29.99 in 10.0 mi SSE 10.4 mph - N/A   Clear